{"data":{"norad_id":61198,"epoch":"2026-05-25T02:36:36.222048Z","epoch_age_seconds":69199,"freshness":"FRESH","line1":"1 61198U 24170D   26145.10875257  .00000057  00000+0  12663-3 0  9994","line2":"2 61198  44.8603 240.3550 0007887 315.5351  44.4847 13.99154635 81303","mean_motion":13.99154635,"eccentricity":0.0007887,"inclination_deg":44.8603,"raan_deg":240.355,"arg_perigee_deg":315.5351,"mean_anomaly_deg":44.4847,"bstar":0.00012663,"rev_number":8130,"period_min":102.91928883186,"perigee_km":890.98628256847,"apogee_km":902.46164825531,"semimajor_km":7274.8609654119,"source":"CELESTRAK","updated_at":"2026-05-25T13:38:02.314422Z"}}